Aberdeen, WA (98520)

12:24 AM PST on February 13, 2016 (GMT -0800)
Central Park 2 | | Change Station
CLOSE
Current Station
Personal Weather Station
Location: Aberdeen, WA
Elevation: 33 ft
Nearby Weather Stations
Active Advisory: Areal Flood Watch

Elev 33 ft 46.97 °N, 123.72 °W | Updated 1 minute ago

Rain
Rain
43.2 °F
Feels Like 43 °F
N
2.2
Wind Variable Wind from SSW

Today
High -- | Low -- °F
--% Chance of Precip.
Yesterday
High -- | Low -- °F
Precip. -- in
Pressure 30.22 in
Visibility 7.0 miles
Clouds Mostly Cloudy 5000 ft
Mostly Cloudy 6000 ft
Windchill 43 °F
Dew Point 43 °F
Humidity 99%
Rainfall 0.00 in
Snow Depth Not available.
7:23 AM 5:35 PM
Waxing Crescent, 28% visible
METAR KHQM 130753Z AUTO 19012KT 7SM BKN050 BKN060 08/07 A3021 RMK AO2 WSHFT 0647 RAE03B17E39 SLP232 P0004 T00830067 401220067
Pressure 30.22 in
Visibility 7.0 miles
Clouds Mostly Cloudy 5000 ft
Mostly Cloudy 6000 ft
Windchill 43 °F
Dew Point 43 °F
Humidity 99%
Rainfall 0.00 in
Snow Depth Not available.
7:23 AM 5:35 PM
Waxing Crescent, 28% visible
METAR KHQM 130753Z AUTO 19012KT 7SM BKN050 BKN060 08/07 A3021 RMK AO2 WSHFT 0647 RAE03B17E39 SLP232 P0004 T00830067 401220067

10-Day Weather Forecast

Almanac

Astronomy

Feb. 13, 2016 Rise Set
Actual Time
Civil Twilight
Nautical Twilight
Astronomical Twilight
Moon
Length of Visible Light
Length of Day
Tomorrow will be .
, % of the Moon is Illuminated

Today's Extremes

State Highs State Lows

Community

WunderPhotos

Upload Photos

1,892,536 photos uploaded!

WunderBlog® & News

Nearby

Air Quality

  Air Quality AQ Index Pollutant
Not available.

Snow Depth

Station Depth Elevation

Earthquake Activity

City Distance Mag. Time & Date
Minimum magnitude displayed is 2.5.

Coastal Water Temperatures

Place Temperature

Stations

Nearby Weather Stations

Station Location Temp. Windchill Dew Point Humidity Wind Precip. Elev Updated Type
                   

Watches & Warnings

Areal Flood Watch
Issued: 9:15 PM PST Feb. 12, 2016 – National Weather Service

... Flood Watch now in effect through Sunday morning...

The Flood Watch is now in effect for

* a portion of northwest Washington... including the following
County... Mason.

* Through Sunday morning.

* Periods of heavy rain Saturday afternoon and night will likely
drive the Skokomish River above the flood stage of 16.5 feet
late Saturday night. Rainfall amounts of 1.5 to 2 inches are
forecast for the eighteen hour period ending at 4 am PST
Sunday. This will be on top of what will fall overnight into
Saturday morning.

Precautionary/preparedness actions...

A Flood Watch means conditions are favorable for flooding but
flooding is not imminent or occurring. Monitor the latest
forecasts from the National Weather Service and be ready to act
quickly if flooding is observed or a warning is issued.



Www.Weather.Gov